Location: Observatorio Las Palmas
(29.0667°N, 110.9333°W)
Time: 10:38:39
(UTC-07:00)

Hubble Space Telescope - Visible Passes

Search period start: 21 October 2017 00:00
Search period end: 31 October 2017 00:00
Orbit: 537 x 541 km, 28.5° (Epoch: 20 October)

Date Brightness Start Highest point End Pass type
(mag) Time Alt. Az. Time Alt. Az. Time Alt. Az.
21 Oct 1.2 18:49:13 10° WSW 18:53:12 48° SSE 18:55:02 27° ESE visible
21 Oct 4.0 20:30:12 10° W 20:30:24 11° W 20:30:24 11° W visible
22 Oct 1.0 18:38:57 10° WSW 18:43:01 57° SSE 18:45:28 22° E visible
22 Oct 3.7 20:20:02 10° W 20:20:49 15° W 20:20:49 15° W visible
23 Oct 0.9 18:28:43 10° WSW 18:32:49 65° S 18:35:51 17° E visible
23 Oct 3.3 20:09:52 10° W 20:11:13 20° W 20:11:13 20° W visible
24 Oct 0.8 18:18:31 10° WSW 18:22:38 73° S 18:26:15 13° E visible
24 Oct 2.8 19:59:42 10° W 20:01:36 26° W 20:01:36 26° W visible
25 Oct 0.8 18:08:20 10° W 18:12:27 79° S 18:16:36 10° E visible
25 Oct 2.3 19:49:33 10° W 19:52:00 34° W 19:52:00 34° W visible
26 Oct 1.7 19:39:23 10° W 19:42:24 45° WSW 19:42:24 45° WSW visible
27 Oct 1.3 19:29:14 10° W 19:32:51 55° SW 19:32:51 55° SW visible
28 Oct 1.2 19:19:05 10° W 19:23:05 50° SSW 19:23:21 49° S visible
29 Oct 1.6 19:08:58 10° W 19:12:53 42° SSW 19:13:56 34° SSE visible
30 Oct 2.0 18:58:52 10° W 19:02:39 35° SSW 19:04:36 22° SSE visible
